SCP
-0 -0 0 0 0 0 0 0 0 0 0 0 0 0 0 0 0 0 -0 0 0 0 0 0 0 0 0 0 -0 0 0 0 0 0 0 0 0 0 0 0 0 0 0
-0 -0 0 0 0 0 0 0 0 0 0 0 0 0 0 0 0 0 0 0 0 0 0 0 0 0 0 0 0 0 0 0 0 0 0 0 0 0 0 0 0 0 0
-0 0 0 0 0 0 0 0 0 0 0 0 0 0 0 0 0 0 0 0 0 0 0 0 0 0 0 0 0 0 0 0 0 0 0 0 0 0 0 0 0 0 0
-0 -0 0 0 0 0 0 0 0 0 0 0 0 0 0 0 0 0 0 0 0 0 0 0 0 0 0 0 0 0 0 0 0 0 0 0 0 0 0 0 0 0 0
-0 0 0 0 0 0 0 0 0 0 0 0 0 0 0 0 0 0 0 0 0 0 0 0 0 0 0 0 0 0 0 0 0 0 0 0 0 0 0 0 0 0 0
-0 -0 0 0 0 0 0 0 0 0 0 0 0 0 0 0 0 0 0 0 0 0 0 0 0 0 0 0 0 0 0 0 0 0 0 0 0 0 0 0 0 0 0
0 -0 -0 0 0 0 0 0 0 0 0 0 0 0 0 0 0 0 0 0 0 0 0 0 0 0 0 0 0 0 0 0 0 0 0 0 0 0 0 0 0 0 0
0 0 0 0 0 0 0 0 0 0 0 0 0 0 0 0 0 0 0 0 0 0 0 0 0 0 0 0 0 0 0 0 0 0 0 0 0 0 0 0 0 0 0
0 0 0 0 0 0 0 0 0 0 0 0 0 0 0 0 0 0 0 0 0 0 0 0 0 0 0 0 0 0 0 0 0 0 0 0 0 0 0 0 0 0 0
0 0 0 0 0 0 0 0 0 0 0 0 0 0 -0 0 0 0 0 0 0 0 0 0 -0 0 0 0 0 0 0 0 0 0 0 0 0 0 0 0 0 0 0
0 0 0 0 0 0 0 0 0 0 0 0 0 0 0 0 0 0 0 0 0 0 0 0 0 0 0 0 0 0 0 0 0 0 0 0 0 0 0 0 0 0 0
0 0 0 0 0 0 0 0 0 0 0 0 0 -0 0 0 0 -0 -0 -0 -0 0 0 0 0 0 0 0 0 0 0 0 0 0 0 0 0 0 0 0 0 0 0
0 0 0 0 0 0 0 0 0 0 0 0 0 0 0 0 0 -0 -0 -0 -0 0 0 0 0 0 0 0 0 0 0 0 0 0 0 0 0 0 0 0 0 0 0
0 0 0 0 0 0 0 0 0 0 0 0 -0 0 0 -0 -0 -0 0 0 0 0 0 0 0 0 0 0 0 0 0 0 0 0 0 0 0 0 0 0 0 0 0
0 0 0 0 0 0 0 0 0 0 0 -0 -0 -0 -0 0 0 -0 0 0 0 0 0 0 0 0 0 0 0 0 0 0 0 0 0 0 0 0 0 0 0 0 0
0 0 0 0 0 0 0 0 0 -0 -0 -0 -0 -0 -0 -0 -0 0 0 0 0 0 0 0 0 0 0 0 0 0 0 0 0 0 0 0 0 0 0 0 0 0 0
0 0 0 0 0 0 0 0 0 0 -0 -0 -0 -0 0 0 0 0 0 0 0 0 0 0 0 0 0 0 0 0 0 0 0 0 0 0 0 0 0 0 0 0 0
0 0 0 0 0 0 0 0 0 0 0 0 0 0 0 0 0 0 0 0 0 0 0 0 0 0 0 0 0 0 0 0 0 0 0 0 0 0 0 0 0 0 0
0 0 0 0 0 0 0 0 0 0 0 0 0 0 0 0 0 0 0 0 0 0 0 0 0 0 0 0 0 0 0 0 0 0 0 0 0 0 0 0 0 0 0
0 0 0 0 0 0 0 0 0 0 0 0 0 0 0 0 0 0 0 0 0 0 0 0 0 0 0 0 0 0 0 0 0 0 0 0 0 0 0 0 0 0 0
0 0 0 0 0 0 0 0 0 0 0 0 0 0 0 0 0 0 0 0 0 0 0 0 0 0 0 0 0 0 0 0 0 0 0 0 0 0 0 0 0 0 0
0 0 0 0 0 0 0 0 0 0 0 0 0 0 0 0 0 0 0 0 0 0 0 0 0 0 0 0 0 0 0 0 0 0 0 0 0 0 0 0 0 0 0
0 0 0 0 0 0 0 0 0 0 0 0 0 0 0 0 0 0 0 0 0 0 0 0 0 0 0 0 0 0 0 0 0 0 0 0 0 0 0 0 0 0 0
0 0 0 0 0 0 0 0 0 0 0 0 0 0 0 0 0 0 0 0 0 0 0 0 0 0 0 0 0 0 0 0 0 0 0 0 0 0 0 0 0 0 0
0 0 0 0 0 0 0 0 0 0 0 0 0 0 0 0 0 0 0 0 0 0 0 0 0 0 0 0 0 0 0 0 0 0 0 0 0 0 0 0 0 0 0
0 0 0 0 0 0 0 0 0 0 0 0 0 0 0 0 0 0 0 0 0 0 0 0 0 0 0 0 0 0 0 0 0 0 0 0 0 0 0 0 0 0 0
Wind_Speed_500mb
28 23 19 21 24 30 31 28 26 24 29 27 27 31 33 40 52 59 53 75 85 85 88 79 72 68 68 66 68 66 69 51 50 40 49 54 47 49 53 57 60 53 46
28 20 17 19 25 26 25 26 26 22 22 22 23 30 30 41 44 46 51 73 68 65 73 59 58 65 66 64 70 72 57 50 45 52 50 43 39 40 36 32 31 32 35
27 20 16 14 14 15 15 15 17 22 21 19 26 28 27 36 37 38 39 57 74 77 57 59 55 53 57 70 68 54 53 44 42 43 43 40 37 34 32 32 33 34 35
28 22 16 10 9 10 11 12 12 12 20 18 17 28 26 29 35 32 38 51 60 61 51 33 25 41 45 48 38 36 35 35 37 35 38 40 41 38 36 36 35 33 30
28 23 18 9 6 9 12 15 12 8 11 14 15 22 25 33 35 36 39 51 54 56 46 41 32 33 33 22 21 21 20 20 20 25 31 39 41 44 42 35 31 30 27
28 26 19 11 7 5 5 6 7 10 10 10 13 14 11 24 37 48 41 58 50 47 50 47 43 36 34 23 22 19 18 14 17 24 29 35 39 38 35 31 30 29 23
30 27 22 16 9 8 9 13 12 10 16 19 17 12 19 24 43 57 54 69 66 63 56 53 47 38 34 30 27 22 24 25 21 14 20 26 32 31 30 29 26 24 20
36 33 30 27 24 21 20 21 25 28 33 37 40 40 43 48 52 60 63 68 70 66 65 54 48 45 38 31 29 29 31 33 29 27 26 29 26 26 24 22 24 24 20
45 43 42 39 36 34 37 38 40 45 50 53 58 62 60 59 53 49 57 66 71 70 63 55 46 45 43 33 26 28 28 29 29 23 19 17 21 25 23 24 26 25 20
50 47 43 46 50 53 54 55 56 58 63 63 69 65 62 57 43 43 48 55 61 61 53 51 44 39 36 32 23 24 22 27 23 19 18 15 17 19 21 24 25 25 23
41 43 44 49 51 51 53 56 59 61 61 59 59 57 53 47 40 35 34 37 40 42 41 39 37 28 25 23 18 16 12 14 12 10 9 13 15 16 18 20 22 23 27
28 34 38 39 40 41 44 42 43 45 49 50 47 46 44 44 37 29 27 30 27 25 29 27 24 17 10 7 5 6 5 5 7 8 14 15 17 18 19 20 21 26 27
20 21 24 26 27 29 31 35 35 35 38 39 37 36 34 30 26 20 18 19 18 17 16 11 7 4 1 3 5 6 6 9 13 13 18 19 17 18 21 19 23 24 25
16 17 18 20 22 23 25 28 30 31 31 32 31 30 28 25 23 20 18 18 17 15 14 12 10 7 6 6 5 4 4 9 12 15 17 15 14 14 18 17 22 23 24
14 17 23 24 24 25 31 34 33 33 28 27 30 26 22 20 19 17 13 12 12 10 10 9 6 5 6 3 4 3 5 5 7 10 10 8 8 9 12 14 16 18 19
16 17 20 22 24 25 27 28 31 32 32 32 29 25 25 23 20 18 16 12 10 11 10 9 8 8 7 6 4 5 5 4 6 6 6 8 8 8 9 10 11 11 12
14 17 19 21 21 21 21 22 24 25 25 25 25 24 22 21 20 18 15 12 6 4 5 7 8 9 9 7 6 5 5 6 8 9 9 9 11 12 13 15 15 15 15
11 14 15 16 18 21 22 23 24 25 26 27 28 29 27 25 23 20 17 14 10 6 7 9 10 9 9 7 7 8 9 10 11 11 12 12 13 14 15 16 16 16 17
8 10 11 13 15 16 16 15 15 13 12 11 12 12 11 12 14 14 14 12 11 11 10 10 10 10 11 11 12 12 12 13 13 13 13 13 14 15 16 17 18 18 19
4 4 4 4 4 4 4 3 3 4 4 4 5 6 6 7 8 7 5 5 6 7 9 10 12 14 14 14 14 13 13 13 13 13 13 14 15 16 18 19 21 22 23
14 12 10 9 7 7 7 7 7 7 7 7 7 7 7 7 7 7 7 8 8 8 9 10 12 13 14 14 14 14 15 15 15 17 18 18 19 21 23 24 25 26 28
22 17 16 16 16 14 13 12 11 11 9 8 9 9 9 9 10 11 12 13 13 13 13 14 14 14 14 15 15 16 17 18 20 21 22 23 25 27 29 30 31 31 32
26 24 24 23 22 20 19 18 17 16 14 13 13 13 13 14 15 16 17 17 17 16 17 17 17 16 17 18 19 20 21 23 26 30 31 33 33 33 34 36 36 39 40
34 32 30 28 25 24 23 22 21 19 18 17 16 17 17 18 19 20 20 19 18 19 20 19 19 20 22 24 26 28 30 32 36 38 40 41 42 43 45 47 48 49 50
36 36 33 31 29 27 26 25 24 23 21 20 19 19 20 22 22 23 22 22 23 23 23 24 25 27 29 31 33 36 39 41 42 43 46 50 52 53 54 56 56 55 55
36 36 34 32 29 28 27 26 25 23 20 20 20 21 22 23 24 24 23 25 25 25 26 28 31 33 35 37 39 41 43 46 48 49 52 56 59 60 59 58 56 54 51
Wind_Direction_500mb
306 307 304 295 279 270 253 247 237 244 249 246 252 261 274 268 249 243 264 221 214 210 210 209 224 232 229 241 242 249 254 246 254 233 228 228 227 229 237 240 242 242 243
316 315 304 281 268 269 267 255 246 245 244 254 251 255 268 265 249 242 269 208 208 211 216 214 216 231 238 246 244 245 244 248 242 246 246 227 228 233 230 227 218 216 203
333 324 307 294 279 266 267 264 257 243 240 234 247 254 265 256 241 238 256 228 211 211 204 212 216 236 242 242 239 239 229 227 240 245 239 229 219 210 203 204 200 201 200
348 334 322 296 270 261 253 255 258 266 236 239 253 258 264 263 232 228 246 199 191 192 191 189 214 211 212 211 216 210 226 234 234 239 237 215 202 190 195 191 183 186 189
3 356 345 332 281 234 225 232 230 245 240 231 262 252 250 265 222 223 237 190 180 177 175 188 182 184 183 177 187 199 207 208 217 216 210 195 186 182 185 187 193 194 193
18 19 10 354 338 254 215 232 186 188 233 213 222 236 237 252 188 214 214 162 162 161 152 146 145 147 149 149 148 154 165 163 184 184 181 184 179 182 184 192 197 189 181
42 48 48 44 51 90 116 127 133 159 161 151 150 161 157 164 163 161 156 136 141 130 133 130 132 126 124 129 127 132 129 124 124 140 166 169 171 177 182 186 194 198 198
58 64 72 79 89 101 116 124 131 138 136 126 125 128 126 125 137 133 129 126 121 121 120 119 123 117 108 111 118 124 123 125 127 138 149 154 164 167 169 179 183 185 186
61 72 80 89 94 100 105 111 116 122 117 111 109 110 104 94 98 108 120 119 114 112 113 116 117 117 112 109 116 116 118 122 124 130 134 141 154 166 168 181 189 197 207
61 70 82 89 98 102 106 108 108 107 104 103 99 96 97 99 112 123 117 110 112 112 112 113 109 111 111 109 111 107 122 122 128 132 140 147 167 176 186 197 209 224 229
67 71 77 86 90 92 96 98 98 98 97 97 102 101 101 106 102 97 98 98 95 103 104 109 114 116 117 117 117 118 119 122 134 150 165 182 187 200 210 214 217 224 227
73 79 79 77 84 93 93 94 95 98 101 100 99 101 102 101 101 98 86 80 87 94 95 95 99 100 102 109 128 133 148 185 215 220 222 222 223 223 231 238 238 237 238
81 78 79 83 82 83 89 97 99 98 96 97 96 93 88 84 88 86 86 80 81 80 92 86 86 79 3 283 257 253 260 249 244 253 251 243 244 249 249 247 254 254 252
63 66 75 80 84 88 86 87 87 83 84 88 87 84 81 82 82 82 75 72 72 60 47 43 41 56 62 43 16 5 291 257 248 247 251 251 253 257 265 265 261 258 254
81 86 96 93 88 89 90 86 85 85 84 85 84 78 76 77 73 67 63 56 48 37 41 49 72 49 27 15 353 312 267 275 280 260 259 265 274 288 285 273 269 270 263
60 64 68 74 85 84 79 79 73 68 65 65 68 64 60 60 58 57 51 43 20 2 4 3 9 28 23 28 13 340 316 287 263 277 308 324 328 317 314 300 290 278 277
52 57 53 52 57 67 75 73 69 69 67 64 59 58 54 52 49 49 51 58 36 15 308 321 344 351 351 341 347 309 290 328 340 335 328 326 323 315 308 298 295 298 294
75 66 60 53 49 47 45 46 47 44 39 35 32 29 26 26 25 25 24 25 34 21 356 348 345 342 333 321 309 314 321 319 311 309 307 305 301 295 289 287 290 289 288
48 44 39 36 32 29 29 33 35 38 39 38 31 19 12 8 4 0 359 354 347 343 334 320 311 305 295 297 303 304 299 293 295 296 296 295 293 290 289 291 293 293 292
293 302 340 351 346 344 343 360 20 30 30 21 14 15 6 357 359 353 338 321 300 281 272 273 278 281 286 291 291 288 287 290 292 292 292 293 292 293 294 294 292 292 291
261 268 277 281 276 282 291 304 329 338 340 333 336 347 347 342 339 327 317 308 298 290 287 286 284 284 283 282 281 281 281 282 282 284 286 288 290 290 288 286 285 284 283
258 268 279 284 285 283 285 290 293 293 294 296 310 318 314 305 301 298 296 293 292 291 291 289 284 280 277 275 276 277 278 279 280 281 282 282 282 283 282 283 283 283 281
264 269 271 274 276 280 282 281 280 281 285 290 292 290 287 283 280 278 278 278 279 283 285 284 281 279 279 280 281 282 284 287 287 289 289 288 287 287 285 285 284 284 284
261 260 263 264 266 269 271 271 274 275 275 273 276 279 281 282 282 282 280 281 284 287 286 284 283 282 281 282 284 287 289 289 289 290 290 290 290 289 288 287 288 288 288
258 257 259 262 265 268 270 270 269 267 267 269 270 273 275 276 275 274 274 277 283 285 284 282 281 282 285 286 287 289 289 289 288 287 287 287 287 287 286 286 286 286 285
253 253 255 258 261 263 264 263 263 263 263 266 271 273 272 270 268 269 275 281 280 278 277 280 284 287 288 289 289 289 288 288 288 287 286 285 285 285 284 284 284 283 282
Wind_Speed_850mb
28 23 19 21 24 30 31 28 26 24 29 27 27 31 33 40 52 59 53 75 85 85 88 79 72 68 68 66 68 66 69 51 50 40 49 54 47 49 53 57 60 53 46
28 20 17 19 25 26 25 26 26 22 22 22 23 30 30 41 44 46 51 73 68 65 73 59 58 65 66 64 70 72 57 50 45 52 50 43 39 40 36 32 31 32 35
27 20 16 14 14 15 15 15 17 22 21 19 26 28 27 36 37 38 39 57 74 77 57 59 55 53 57 70 68 54 53 44 42 43 43 40 37 34 32 32 33 34 35
28 22 16 10 9 10 11 12 12 12 20 18 17 28 26 29 35 32 38 51 60 61 51 33 25 41 45 48 38 36 35 35 37 35 38 40 41 38 36 36 35 33 30
28 23 18 9 6 9 12 15 12 8 11 14 15 22 25 33 35 36 39 51 54 56 46 41 32 33 33 22 21 21 20 20 20 25 31 39 41 44 42 35 31 30 27
28 26 19 11 7 5 5 6 7 10 10 10 13 14 11 24 37 48 41 58 50 47 50 47 43 36 34 23 22 19 18 14 17 24 29 35 39 38 35 31 30 29 23
30 27 22 16 9 8 9 13 12 10 16 19 17 12 19 24 43 57 54 69 66 63 56 53 47 38 34 30 27 22 24 25 21 14 20 26 32 31 30 29 26 24 20
36 33 30 27 24 21 20 21 25 28 33 37 40 40 43 48 52 60 63 68 70 66 65 54 48 45 38 31 29 29 31 33 29 27 26 29 26 26 24 22 24 24 20
45 43 42 39 36 34 37 38 40 45 50 53 58 62 60 59 53 49 57 66 71 70 63 55 46 45 43 33 26 28 28 29 29 23 19 17 21 25 23 24 26 25 20
50 47 43 46 50 53 54 55 56 58 63 63 69 65 62 57 43 43 48 55 61 61 53 51 44 39 36 32 23 24 22 27 23 19 18 15 17 19 21 24 25 25 23
41 43 44 49 51 51 53 56 59 61 61 59 59 57 53 47 40 35 34 37 40 42 41 39 37 28 25 23 18 16 12 14 12 10 9 13 15 16 18 20 22 23 27
28 34 38 39 40 41 44 42 43 45 49 50 47 46 44 44 37 29 27 30 27 25 29 27 24 17 10 7 5 6 5 5 7 8 14 15 17 18 19 20 21 26 27
20 21 24 26 27 29 31 35 35 35 38 39 37 36 34 30 26 20 18 19 18 17 16 11 7 4 1 3 5 6 6 9 13 13 18 19 17 18 21 19 23 24 25
16 17 18 20 22 23 25 28 30 31 31 32 31 30 28 25 23 20 18 18 17 15 14 12 10 7 6 6 5 4 4 9 12 15 17 15 14 14 18 17 22 23 24
14 17 23 24 24 25 31 34 33 33 28 27 30 26 22 20 19 17 13 12 12 10 10 9 6 5 6 3 4 3 5 5 7 10 10 8 8 9 12 14 16 18 19
16 17 20 22 24 25 27 28 31 32 32 32 29 25 25 23 20 18 16 12 10 11 10 9 8 8 7 6 4 5 5 4 6 6 6 8 8 8 9 10 11 11 12
14 17 19 21 21 21 21 22 24 25 25 25 25 24 22 21 20 18 15 12 6 4 5 7 8 9 9 7 6 5 5 6 8 9 9 9 11 12 13 15 15 15 15
11 14 15 16 18 21 22 23 24 25 26 27 28 29 27 25 23 20 17 14 10 6 7 9 10 9 9 7 7 8 9 10 11 11 12 12 13 14 15 16 16 16 17
8 10 11 13 15 16 16 15 15 13 12 11 12 12 11 12 14 14 14 12 11 11 10 10 10 10 11 11 12 12 12 13 13 13 13 13 14 15 16 17 18 18 19
4 4 4 4 4 4 4 3 3 4 4 4 5 6 6 7 8 7 5 5 6 7 9 10 12 14 14 14 14 13 13 13 13 13 13 14 15 16 18 19 21 22 23
14 12 10 9 7 7 7 7 7 7 7 7 7 7 7 7 7 7 7 8 8 8 9 10 12 13 14 14 14 14 15 15 15 17 18 18 19 21 23 24 25 26 28
22 17 16 16 16 14 13 12 11 11 9 8 9 9 9 9 10 11 12 13 13 13 13 14 14 14 14 15 15 16 17 18 20 21 22 23 25 27 29 30 31 31 32
26 24 24 23 22 20 19 18 17 16 14 13 13 13 13 14 15 16 17 17 17 16 17 17 17 16 17 18 19 20 21 23 26 30 31 33 33 33 34 36 36 39 40
34 32 30 28 25 24 23 22 21 19 18 17 16 17 17 18 19 20 20 19 18 19 20 19 19 20 22 24 26 28 30 32 36 38 40 41 42 43 45 47 48 49 50
36 36 33 31 29 27 26 25 24 23 21 20 19 19 20 22 22 23 22 22 23 23 23 24 25 27 29 31 33 36 39 41 42 43 46 50 52 53 54 56 56 55 55
36 36 34 32 29 28 27 26 25 23 20 20 20 21 22 23 24 24 23 25 25 25 26 28 31 33 35 37 39 41 43 46 48 49 52 56 59 60 59 58 56 54 51
Wind_Direction_850mb
306 307 304 295 279 270 253 247 237 244 249 246 252 261 274 268 249 243 264 221 214 210 210 209 224 232 229 241 242 249 254 246 254 233 228 228 227 229 237 240 242 242 243
316 315 304 281 268 269 267 255 246 245 244 254 251 255 268 265 249 242 269 208 208 211 216 214 216 231 238 246 244 245 244 248 242 246 246 227 228 233 230 227 218 216 203
333 324 307 294 279 266 267 264 257 243 240 234 247 254 265 256 241 238 256 228 211 211 204 212 216 236 242 242 239 239 229 227 240 245 239 229 219 210 203 204 200 201 200
348 334 322 296 270 261 253 255 258 266 236 239 253 258 264 263 232 228 246 199 191 192 191 189 214 211 212 211 216 210 226 234 234 239 237 215 202 190 195 191 183 186 189
3 356 345 332 281 234 225 232 230 245 240 231 262 252 250 265 222 223 237 190 180 177 175 188 182 184 183 177 187 199 207 208 217 216 210 195 186 182 185 187 193 194 193
18 19 10 354 338 254 215 232 186 188 233 213 222 236 237 252 188 214 214 162 162 161 152 146 145 147 149 149 148 154 165 163 184 184 181 184 179 182 184 192 197 189 181
42 48 48 44 51 90 116 127 133 159 161 151 150 161 157 164 163 161 156 136 141 130 133 130 132 126 124 129 127 132 129 124 124 140 166 169 171 177 182 186 194 198 198
58 64 72 79 89 101 116 124 131 138 136 126 125 128 126 125 137 133 129 126 121 121 120 119 123 117 108 111 118 124 123 125 127 138 149 154 164 167 169 179 183 185 186
61 72 80 89 94 100 105 111 116 122 117 111 109 110 104 94 98 108 120 119 114 112 113 116 117 117 112 109 116 116 118 122 124 130 134 141 154 166 168 181 189 197 207
61 70 82 89 98 102 106 108 108 107 104 103 99 96 97 99 112 123 117 110 112 112 112 113 109 111 111 109 111 107 122 122 128 132 140 147 167 176 186 197 209 224 229
67 71 77 86 90 92 96 98 98 98 97 97 102 101 101 106 102 97 98 98 95 103 104 109 114 116 117 117 117 118 119 122 134 150 165 182 187 200 210 214 217 224 227
73 79 79 77 84 93 93 94 95 98 101 100 99 101 102 101 101 98 86 80 87 94 95 95 99 100 102 109 128 133 148 185 215 220 222 222 223 223 231 238 238 237 238
81 78 79 83 82 83 89 97 99 98 96 97 96 93 88 84 88 86 86 80 81 80 92 86 86 79 3 283 257 253 260 249 244 253 251 243 244 249 249 247 254 254 252
63 66 75 80 84 88 86 87 87 83 84 88 87 84 81 82 82 82 75 72 72 60 47 43 41 56 62 43 16 5 291 257 248 247 251 251 253 257 265 265 261 258 254
81 86 96 93 88 89 90 86 85 85 84 85 84 78 76 77 73 67 63 56 48 37 41 49 72 49 27 15 353 312 267 275 280 260 259 265 274 288 285 273 269 270 263
60 64 68 74 85 84 79 79 73 68 65 65 68 64 60 60 58 57 51 43 20 2 4 3 9 28 23 28 13 340 316 287 263 277 308 324 328 317 314 300 290 278 277
52 57 53 52 57 67 75 73 69 69 67 64 59 58 54 52 49 49 51 58 36 15 308 321 344 351 351 341 347 309 290 328 340 335 328 326 323 315 308 298 295 298 294
75 66 60 53 49 47 45 46 47 44 39 35 32 29 26 26 25 25 24 25 34 21 356 348 345 342 333 321 309 314 321 319 311 309 307 305 301 295 289 287 290 289 288
48 44 39 36 32 29 29 33 35 38 39 38 31 19 12 8 4 0 359 354 347 343 334 320 311 305 295 297 303 304 299 293 295 296 296 295 293 290 289 291 293 293 292
293 302 340 351 346 344 343 360 20 30 30 21 14 15 6 357 359 353 338 321 300 281 272 273 278 281 286 291 291 288 287 290 292 292 292 293 292 293 294 294 292 292 291
261 268 277 281 276 282 291 304 329 338 340 333 336 347 347 342 339 327 317 308 298 290 287 286 284 284 283 282 281 281 281 282 282 284 286 288 290 290 288 286 285 284 283
258 268 279 284 285 283 285 290 293 293 294 296 310 318 314 305 301 298 296 293 292 291 291 289 284 280 277 275 276 277 278 279 280 281 282 282 282 283 282 283 283 283 281
264 269 271 274 276 280 282 281 280 281 285 290 292 290 287 283 280 278 278 278 279 283 285 284 281 279 279 280 281 282 284 287 287 289 289 288 287 287 285 285 284 284 284
261 260 263 264 266 269 271 271 274 275 275 273 276 279 281 282 282 282 280 281 284 287 286 284 283 282 281 282 284 287 289 289 289 290 290 290 290 289 288 287 288 288 288
258 257 259 262 265 268 270 270 269 267 267 269 270 273 275 276 275 274 274 277 283 285 284 282 281 282 285 286 287 289 289 289 288 287 287 287 287 287 286 286 286 286 285
253 253 255 258 261 263 264 263 263 263 263 266 271 273 272 270 268 269 275 281 280 278 277 280 284 287 288 289 289 289 288 288 288 287 286 285 285 285 284 284 284 283 282